When you browse on this site, cookies collect data to enhance your experience and personalize the content and advertising you see.
Visit our Privacy Policy to learn more. By continuing to use the site, you agree to this use of cookies and data.
  • In Czech Republic
  • List of Countries
  • For 7 days
  • Water Temperature
  • Satellite Maps
  • Weather Map
  • Weather Widgets
  • user-avatar
    Login

    Hourly Weather Ischgl

    Today, 17 December, Monday

    Time Temperature Precipitation Wind Pressure Humidity
    00:00 -10°C° 0 mm 1 mps 567 mmHg 90%
    01:00 -11°C° 0 mm 1 mps 567 mmHg 87%
    02:00 -11°C° 0 mm 1 mps 567 mmHg 87%
    03:00 -11°C° 0 mm 1 mps 567 mmHg 87%
    04:00 -11°C° 0 mm 1 mps 567 mmHg 86%
    05:00 -11°C° 0 mm 1 mps 567 mmHg 88%
    06:00 -11°C° 0 mm 1 mps 568 mmHg 89%
    07:00 -11°C° 0 mm 1 mps 568 mmHg 90%
    08:00 -10°C° 0 mm 1 mps 569 mmHg 90%
    09:00 -10°C° 0 mm 2 mps 570 mmHg 89%
    10:00 -9°C° 0 mm 2 mps 571 mmHg 89%
    11:00 -8°C° 0 mm 2 mps 571 mmHg 88%
    12:00 -7°C° 0 mm 2 mps 572 mmHg 87%
    13:00 -7°C° 0 mm 2 mps 572 mmHg 86%
    14:00 -7°C° 0 mm 2 mps 573 mmHg 88%
    15:00 -8°C° 0 mm 2 mps 573 mmHg 90%
    16:00 -8°C° 0 mm 2 mps 573 mmHg 92%
    17:00 -9°C° 0.1 mm 2 mps 573 mmHg 93%
    18:00 -10°C° 0.1 mm 2 mps 573 mmHg 93%
    19:00 -10°C° 0.1 mm 2 mps 574 mmHg 94%
    20:00 -10°C° 0 mm 2 mps 574 mmHg 94%
    21:00 -12°C° 0 mm 2 mps 574 mmHg 94%
    22:00 -12°C° 0 mm 2 mps 574 mmHg 94%
    23:00 -13°C° 0 mm 2 mps 574 mmHg 94%

    Tomorrow, 18 December, Tuesday

    Time Temperature Precipitation Wind Pressure Humidity
    00:00 -13°C° 0 mm 2 mps 574 mmHg 93%
    01:00 -12°C° 0 mm 1 mps 574 mmHg 92%
    02:00 -15°C° 0 mm 2 mps 573 mmHg 87%
    03:00 -15°C° 0 mm 2 mps 573 mmHg 83%
    04:00 -15°C° 0 mm 2 mps 573 mmHg 78%
    05:00 -15°C° 0 mm 2 mps 573 mmHg 72%
    06:00 -15°C° 0 mm 2 mps 573 mmHg 65%
    07:00 -15°C° 0 mm 2 mps 573 mmHg 59%
    08:00 -14°C° 0 mm 2 mps 573 mmHg 57%
    09:00 -12°C° 0 mm 2 mps 574 mmHg 56%
    10:00 -10°C° 0 mm 2 mps 574 mmHg 55%
    11:00 -8°C° 0 mm 2 mps 575 mmHg 58%
    12:00 -7°C° 0 mm 2 mps 575 mmHg 61%
    13:00 -5°C° 0 mm 2 mps 575 mmHg 64%
    14:00 -7°C° 0 mm 2 mps 574 mmHg 66%
    15:00 -8°C° 0 mm 2 mps 574 mmHg 67%
    16:00 -9°C° 0 mm 2 mps 573 mmHg 68%
    17:00 -10°C° 0 mm 2 mps 572 mmHg 66%
    18:00 -12°C° 0 mm 2 mps 572 mmHg 64%
    19:00 -14°C° 0 mm 3 mps 571 mmHg 61%
    20:00 -13°C° 0 mm 3 mps 571 mmHg 59%
    21:00 -13°C° 0 mm 3 mps 571 mmHg 57%
    22:00 -13°C° 0 mm 3 mps 571 mmHg 55%
    23:00 -12°C° 0 mm 2 mps 571 mmHg 53%

    Day after tomorrow, 19 December, Wednesday

    Time Temperature Precipitation Wind Pressure Humidity
    00:00 -12°C° 0 mm 2 mps 571 mmHg 51%
    01:00 -10°C° 0 mm 2 mps 571 mmHg 49%
    02:00 -10°C° 0 mm 2 mps 571 mmHg 49%
    03:00 -10°C° 0 mm 2 mps 571 mmHg 49%
    04:00 -10°C° 0 mm 2 mps 571 mmHg 49%
    05:00 -9°C° 0 mm 2 mps 571 mmHg 50%
    06:00 -9°C° 0 mm 2 mps 571 mmHg 52%
    07:00 -9°C° 0 mm 2 mps 571 mmHg 53%
    08:00 -8°C° 0 mm 2 mps 572 mmHg 56%
    09:00 -7°C° 0 mm 2 mps 572 mmHg 60%
    10:00 -7°C° 0 mm 2 mps 572 mmHg 63%
    11:00 -4°C° 0 mm 1 mps 572 mmHg 65%
    12:00 -3°C° 0 mm 1 mps 572 mmHg 68%
    13:00 -2°C° 0 mm 1 mps 573 mmHg 70%
    14:00 -5°C° 0 mm 2 mps 572 mmHg 73%
    15:00 -6°C° 0 mm 2 mps 571 mmHg 76%
    16:00 -7°C° 0 mm 2 mps 571 mmHg 78%
    17:00 -8°C° 0 mm 2 mps 570 mmHg 79%
    18:00 -9°C° 0 mm 2 mps 570 mmHg 80%
    19:00 -10°C° 0 mm 2 mps 570 mmHg 81%
    20:00 -10°C° 0.1 mm 2 mps 570 mmHg 83%
    21:00 -10°C° 0.1 mm 2 mps 570 mmHg 84%
    22:00 -9°C° 0.1 mm 2 mps 570 mmHg 85%
    23:00 -8°C° 0.4 mm 1 mps 570 mmHg 87%

    20 December, Thursday

    Time Temperature Precipitation Wind Pressure Humidity
    00:00 -8°C° 0.4 mm 1 mps 570 mmHg 89%
    01:00 -8°C° 0.4 mm 1 mps 570 mmHg 91%
    02:00 -8°C° 0.8 mm 1 mps 570 mmHg 92%
    03:00 -8°C° 0.8 mm 1 mps 570 mmHg 94%
    04:00 -8°C° 0.8 mm 0 mps 570 mmHg 95%
    05:00 -8°C° 0.6 mm 1 mps 570 mmHg 95%
    06:00 -8°C° 0.6 mm 1 mps 570 mmHg 95%
    07:00 -8°C° 0.6 mm 1 mps 570 mmHg 95%
    08:00 -7°C° 0.5 mm 1 mps 571 mmHg 95%
    09:00 -7°C° 0.5 mm 1 mps 571 mmHg 94%
    10:00 -8°C° 0.5 mm 2 mps 572 mmHg 94%
    11:00 -7°C° 0.3 mm 2 mps 572 mmHg 93%
    12:00 -7°C° 0.3 mm 2 mps 572 mmHg 92%
    13:00 -6°C° 0.3 mm 2 mps 572 mmHg 91%
    14:00 -7°C° 0.1 mm 2 mps 572 mmHg 92%
    15:00 -7°C° 0.1 mm 2 mps 572 mmHg 93%
    16:00 -8°C° 0.1 mm 2 mps 572 mmHg 93%
    17:00 -9°C° 0 mm 2 mps 572 mmHg 94%
    18:00 -10°C° 0 mm 2 mps 572 mmHg 94%
    19:00 -10°C° 0 mm 2 mps 572 mmHg 94%
    20:00 -10°C° 0 mm 1 mps 572 mmHg 93%
    21:00 -11°C° 0 mm 1 mps 572 mmHg 93%
    22:00 -11°C° 0 mm 1 mps 572 mmHg 92%
    23:00 -11°C° 0 mm 1 mps 572 mmHg 90%

    21 December, Friday

    Time Temperature Precipitation Wind Pressure Humidity
    00:00 -14°C° 0 mm 2 mps 572 mmHg 88%
    01:00 -14°C° 0 mm 2 mps 572 mmHg 85%
    02:00 -14°C° 0 mm 2 mps 571 mmHg 81%
    03:00 -14°C° 0 mm 2 mps 571 mmHg 76%
    04:00 -14°C° 0 mm 2 mps 571 mmHg 71%
    05:00 -14°C° 0 mm 2 mps 572 mmHg 67%
    06:00 -13°C° 0 mm 2 mps 572 mmHg 64%
    07:00 -13°C° 0 mm 2 mps 572 mmHg 60%
    08:00 -12°C° 0 mm 2 mps 572 mmHg 60%
    09:00 -9°C° 0 mm 2 mps 573 mmHg 60%
    10:00 -8°C° 0 mm 2 mps 574 mmHg 61%
    11:00 -7°C° 0 mm 2 mps 574 mmHg 63%
    12:00 -5°C° 0 mm 2 mps 574 mmHg 66%
    13:00 -4°C° 0 mm 2 mps 574 mmHg 69%
    14:00 -5°C° 0 mm 2 mps 574 mmHg 71%
    15:00 -5°C° 0 mm 2 mps 573 mmHg 73%
    16:00 -6°C° 0 mm 2 mps 573 mmHg 75%
    17:00 -6°C° 0 mm 2 mps 573 mmHg 73%
    18:00 -7°C° 0 mm 3 mps 573 mmHg 72%
    19:00 -7°C° 0 mm 3 mps 573 mmHg 70%
    20:00 -6°C° 0.1 mm 2 mps 574 mmHg 70%
    21:00 -6°C° 0.1 mm 2 mps 574 mmHg 71%
    22:00 -6°C° 0.1 mm 2 mps 574 mmHg 71%
    23:00 -6°C° 0 mm 2 mps 574 mmHg 72%

    22 December, Saturday

    Time Temperature Precipitation Wind Pressure Humidity
    00:00 -6°C° 0 mm 2 mps 574 mmHg 73%
    01:00 -6°C° 0 mm 2 mps 574 mmHg 74%
    02:00 -6°C° 0.1 mm 2 mps 574 mmHg 77%
    03:00 -5°C° 0.1 mm 2 mps 574 mmHg 80%
    04:00 -5°C° 0.1 mm 2 mps 574 mmHg 83%
    05:00 -5°C° 0.2 mm 2 mps 574 mmHg 84%
    06:00 -5°C° 0.2 mm 2 mps 574 mmHg 84%
    07:00 -5°C° 0.2 mm 2 mps 574 mmHg 85%
    08:00 -5°C° 0.2 mm 2 mps 575 mmHg 87%
    09:00 -4°C° 0.2 mm 2 mps 575 mmHg 88%
    10:00 -3°C° 0.2 mm 2 mps 576 mmHg 89%
    11:00 -3°C° 0 mm 2 mps 576 mmHg 91%
    12:00 -2°C° 0 mm 2 mps 576 mmHg 94%
    13:00 -2°C° 0 mm 2 mps 576 mmHg 96%
    14:00 -3°C° 0 mm 2 mps 576 mmHg 95%
    15:00 -3°C° 0 mm 2 mps 575 mmHg 94%
    16:00 -4°C° 0 mm 2 mps 575 mmHg 93%
    17:00 -5°C° 0 mm 2 mps 575 mmHg 89%
    18:00 -6°C° 0 mm 2 mps 575 mmHg 86%
    19:00 -7°C° 0 mm 2 mps 574 mmHg 82%
    20:00 -7°C° 0 mm 2 mps 575 mmHg 80%
    21:00 -6°C° 0 mm 2 mps 575 mmHg 77%
    22:00 -6°C° 0 mm 2 mps 575 mmHg 75%
    23:00 -6°C° 0.3 mm 2 mps 575 mmHg 78%
    Show more